Home > Weather > Summerside > Past weeks

Flag for Canada Weather for the Past 2 Weeks in Summerside, Prince Edward Island, Canada

Now
46 °F

Cool.


Feels Like: 41 °F
Forecast: 36 / 44 °F
Wind: 9 mph from Southeast

Location: Summerside Airport

Current Time: May 3, 2016 at 2:36:25 AM

Latest Report: May 3, 2016 at 2:00 AM


Visibility: N/A

Pressure: 29.95 "Hg

Humidity: 56%

Dew Point: 31 °F

Location of SummersideLocation

Historic Weather in Summerside — Graph

°F

Summerside Temperature Yesterday

Maximum temperature yesterday: 58 °F (at 5:00 PM)
Minimum temperature yesterday: 41 °F (at 2:00 AM)
Average temperature yesterday: 48 °F

High & Low Weather Summary for the Past Weeks

 TemperatureHumidityPressure
High62 °F (Apr 21, 3:00 PM)96% (Apr 19, 7:00 AM)30.30 "Hg (Apr 19, 7:00 AM)
Low24 °F (Apr 19, 3:00 AM)21% (Apr 29, 4:00 PM)29.69 "Hg (Apr 21, 4:00 PM)
Average39 °F62%29.98 "Hg
* Reported Midnight between Apr 17 and Apr 18 — Midnight between May 2 and May 3, Summerside, Weather by CustomWeather, © 2016

Note: Actual official high and low records may vary slightly from our data, if they occured in-between our weather recording intervals... More about our weather records

Advertising

Summerside Weather History for the Previous 24 Hours

Scroll right to see more
 ConditionsComfort  
Time TempWeatherWind HumidityBarometerVisibility
12:00 AM
Tue, May 3
48 °FCool.8 mph47%30.02 "HgN/A
11:00 PM
Mon, May 2
49 °FCool.10 mph47%30.04 "HgN/A
10:00 PM49 °FCool.6 mph54%30.06 "HgN/A
9:00 PM51 °FCool.10 mph46%30.07 "HgN/A
8:00 PM51 °FCool.9 mph47%30.07 "HgN/A
7:00 PM53 °FCool.10 mph52%30.08 "HgN/A
6:00 PM55 °FCool.8 mph46%30.09 "HgN/A
5:00 PM58 °FRefreshingly cool.6 mph28%30.11 "HgN/A
4:00 PM56 °FRefreshingly cool.5 mph24%30.13 "HgN/A
3:00 PM55 °FCool.7 mph30%30.15 "HgN/A
2:00 PM54 °FCool.6 mph37%30.16 "HgN/A
1:00 PM54 °FCool.6 mph41%30.17 "HgN/A
12:00 PM51 °FCool.8 mph47%30.19 "HgN/A
11:00 AM50 °FCool.7 mph48%30.19 "HgN/A
10:00 AM51 °FCool.3 mph55%30.19 "HgN/A
9:00 AM46 °FCool.5 mph68%30.19 "HgN/A
8:00 AM44 °FQuite cool.8 mph72%30.19 "HgN/A
7:00 AM42 °FQuite cool.9 mph79%30.19 "HgN/A
6:00 AM42 °FQuite cool.8 mph78%30.17 "HgN/A
5:00 AM42 °FQuite cool.12 mph74%30.17 "HgN/A
4:00 AM42 °FQuite cool.7 mph66%30.19 "HgN/A
3:00 AM41 °FQuite cool.2 mph73%30.19 "HgN/A
2:00 AM41 °FQuite cool.1 mph62%30.20 "HgN/A
Weather by CustomWeather, © 2016

See weather overviewHow to use our weather pages